Terminal Aerodrome Forecast
Issued by NWS

Home | Current Version | Previous Version | Text Only | Print | Product List | Glossary On
Versions: 1 2 3 4 5 6 7 8 9 10 11 12 13 14 15
000
FTAK31 PAJN 010800 AAA
TAFAGY
TAF AMD
PAGY 010802Z 0108/0206 03025G40KT P6SM SKC
     FM011700 04030G50KT P6SM SKC
      AMD LTD TO CLD VIS AND WIND=

USA.gov is the U.S. government's official web portal to all federal, state and local government web resources and services.